Location: Unspecified
(47.9115°N, 0.0000°E)
Time: 12:26:59
(UTC+00:00)

deb Kosmos-1275 - Visible Passes

Search period start: 04 April 2026 00:00
Search period end: 14 April 2026 00:00
Orbit: 839 x 858 km, 83.0° (Epoch: 29 March)

Date Brightness Start Highest point End Pass type
(mag) Time Alt. Az. Time Alt. Az. Time Alt. Az.
4 Apr ? 19:59:08 10° NNW 20:04:09 35° W 20:09:09 10° SSW visible
5 Apr ? 19:46:23 10° NNW 19:51:32 39° W 19:56:40 10° SSW visible
6 Apr ? 19:33:39 10° NNW 19:38:54 43° W 19:44:08 10° SSW visible
7 Apr ? 19:20:55 10° NNW 19:26:15 48° W 19:31:36 10° SSW visible
8 Apr ? 19:08:11 10° NNW 19:13:37 53° W 19:19:01 10° SSW visible
11 Apr ? 20:15:52 10° WNW 20:17:12 11° WNW 20:18:32 10° W visible
12 Apr ? 20:02:27 10° NW 20:04:36 12° WNW 20:06:45 10° W visible
13 Apr ? 19:49:18 10° NW 19:52:00 14° WNW 19:54:42 10° WSW visible
